SCP
0 0 0 0 0 0 0 0 0 0 0 0 0 0 0 0 0 0 0 0 0 0 0 0 0 0 0 0 0 0 0 0 0 0 0 0 0 0
0 0 0 0 0 0 0 0 0 0 0 0 0 0 0 0 0 0 0 0 0 0 0 0 0 0 0 0 0 0 0 0 0 0 0 0 0 0
0 0 0 0 0 0 0 0 0 0 0 0 0 0 0 0 0 0 0 0 0 0 0 0 0 0 0 0 0 0 0 0 0 0 0 0 0 0
0 0 0 0 0 0 0 0 0 0 0 0 0 0 0 0 0 0 0 0 0 0 0 0 0 0 0 0 0 0 0 0 0 0 0 0 0 0
0 0 0 0 0 0 0 0 0 0 0 0 0 0 0 0 0 0 0 0 0 0 0 0 0 0 0 0 0 0 0 0 0 0 0 0 0 0
0 0 0 0 0 0 0 0 0 0 0 0 0 0 0 0 0 0 0 0 0 0 0 0 0 0 0 0 0 0 0 0 0 0 0 0 0 0
0 0 0 0 0 0 0 0 0 0 0 0 0 0 0 0 0 0 0 0 0 0 0 0 0 0 0 0 0 0 0 0 0 0 0 0 0 0
0 0 0 0 0 0 0 0 0 0 0 0 0 0 0 0 0 0 0 0 0 0 0 0 0 0 0 0 0 0 0 0 0 0 0 0 0 0
0 0 0 0 0 0 0 0 0 0 0 0 0 0 0 0 0 0 0 0 0 0 0 0 0 0 0 0 0 0 0 0 0 0 0 0 0 0
0 0 0 0 0 0 0 0 0 0 0 0 0 0 0 0 0 0 0 0 0 0 0 0 0 0 0 0 0 0 0 0 0 0 0 0 0 0
0 0 0 0 0 0 0 0 0 0 0 0 0 0 0 0 0 0 0 0 0 0 0 0 0 0 0 0 0 0 0 0 0 0 0 0 0 0
0 0 0 0 0 0 0 0 0 0 0 0 0 0 0 0 0 0 0 0 0 0 0 0 0 0 0 0 0 0 0 0 0 0 0 0 0 0
0 0 0 0 0 0 0 0 0 0 0 0 0 0 0 0 0 0 0 0 0 0 0 0 0 0 0 0 0 0 0 0 0 0 0 0 0 0
0 0 0 0 0 0 0 0 0 0 0 0 0 0 0 0 0 0 0 0 0 0 0 0 0 0 0 0 0 0 0 0 0 0 0 0 0 0
0 0 0 0 0 0 0 0 0 0 0 0 0 0 0 0 0 0 0 0 0 0 0 0 0 0 0 0 0 0 0 0 0 0 0 0 0 0
0 0 0 0 0 0 0 0 0 0 0 0 0 0 0 0 0 0 0 0 0 0 0 0 0 0 0 0 0 0 0 0 0 0 0 0 0 0
0 0 0 0 0 0 0 0 0 0 0 0 0 0 0 0 0 0 0 0 0 0 0 0 0 0 0 0 0 0 0 0 0 0 0 0 0 0
0 0 0 0 0 0 0 0 0 0 0 0 0 0 0 0 0 0 0 0 0 0 0 0 0 0 0 0 0 0 0 0 0 0 0 0 0 0
0 0 0 0 0 0 0 0 0 0 0 0 0 0 0 0 0 0 0 0 0 0 0 0 0 0 0 0 0 0 0 0 0 0 0 0 0 0
0 0 0 0 0 0 0 0 0 0 0 0 0 0 0 0 0 0 0 0 0 0 0 0 0 0 0 0 0 0 0 0 0 0 0 0 0 0
0 0 0 0 0 0 0 0 0 0 0 0 0 0 0 0 0 0 0 0 0 0 0 0 0 0 0 0 0 0 0 0 0 0 0 0 0 0
0 0 0 0 0 0 0 0 0 0 0 0 0 0 0 0 0 0 0 0 0 0 0 0 0 0 0 0 0 0 0 0 0 0 0 0 0 0
0 0 0 0 0 0 0 0 0 0 0 0 0 0 0 0 0 0 0 0 0 0 0 0 0 0 0 0 0 0 0 0 0 0 0 0 0 0
Wind_Speed
3 3 3 2 3 3 3 4 5 3 1 1 0 1 1 2 3 3 3 7 8 9 9 10 10 11 11 11 11 11 11 11 11 11 12 11 11 11
2 3 3 2 3 3 3 3 3 4 2 1 1 1 1 2 4 3 3 6 7 8 8 9 9 9 9 9 9 10 10 10 9 10 11 11 11 11
3 4 4 3 3 3 3 3 3 3 3 1 1 1 2 2 2 2 3 3 3 6 7 7 8 8 8 8 8 9 9 9 9 9 10 10 10 10
3 4 4 3 4 4 3 4 3 3 4 3 1 1 1 2 2 2 2 2 2 4 5 6 6 7 7 7 8 7 7 8 8 8 8 8 9 9
4 4 4 5 4 4 4 4 3 3 3 4 3 1 1 1 2 2 2 2 1 2 3 4 5 5 6 6 6 6 6 7 7 7 7 8 8 8
3 4 4 5 6 6 5 5 4 4 4 4 3 2 1 1 2 2 1 1 1 1 2 2 3 3 4 4 4 5 5 6 6 6 6 7 7 7
3 3 4 6 7 7 5 6 6 5 4 4 3 2 2 3 3 2 2 1 1 0 1 1 1 1 2 2 2 2 3 3 4 5 5 5 5 6
4 3 3 4 7 8 9 10 10 8 7 5 4 4 4 4 3 3 3 2 1 1 1 0 0 0 1 1 2 1 1 1 2 3 3 4 4 4
4 4 3 4 5 4 6 9 10 11 11 8 7 7 6 7 6 5 4 3 2 2 2 1 0 1 1 1 2 1 1 1 0 1 2 2 3 3
4 5 5 4 4 5 5 5 5 6 8 7 7 7 6 7 8 7 5 3 1 1 2 1 1 2 1 1 2 2 2 2 1 1 0 1 2 2
4 4 5 4 6 7 6 5 5 4 5 7 6 6 8 10 9 6 5 4 2 2 2 2 1 1 1 2 2 3 2 2 2 2 1 1 0 1
3 3 6 6 7 8 7 7 7 6 5 5 4 4 5 8 12 8 7 5 3 2 3 3 2 1 1 1 1 1 1 2 2 2 2 2 1 1
3 3 3 7 8 9 8 7 8 6 5 5 4 3 3 4 5 5 5 5 4 3 4 4 3 2 2 1 1 1 1 1 1 2 2 2 2 2
4 3 3 6 7 8 7 7 8 7 4 4 4 4 4 4 4 4 4 3 3 3 5 5 3 4 3 2 2 1 1 1 1 1 1 2 3 3
4 5 5 6 6 5 7 8 7 5 4 4 5 5 4 4 4 3 3 2 1 1 3 4 3 3 3 3 2 2 1 1 2 2 2 2 2 2
3 3 4 5 4 4 4 4 5 5 5 5 5 4 3 4 4 4 3 3 2 0 1 2 4 5 3 3 3 3 3 2 2 2 2 2 2 3
2 1 1 1 2 2 2 3 4 4 5 4 4 4 4 4 3 3 3 3 3 3 2 1 1 1 2 3 3 4 3 3 3 2 2 2 3 4
3 2 2 3 3 4 4 4 4 5 5 5 5 5 5 5 4 3 3 4 4 4 3 2 2 1 0 2 4 4 3 3 2 3 3 3 4 4
3 3 4 4 3 3 3 4 4 4 4 5 5 6 5 5 5 5 5 4 4 4 4 3 3 3 3 4 3 5 4 3 2 2 3 4 4 4
3 4 4 4 4 4 4 4 4 3 4 4 5 5 6 6 6 6 6 6 5 4 4 4 5 6 6 4 3 2 5 4 3 3 2 2 3 4
4 4 4 4 4 4 4 4 4 4 4 5 5 6 6 6 5 6 6 7 6 5 6 6 6 6 2 1 1 2 2 5 5 3 2 1 2 2
4 4 4 4 4 4 4 3 4 4 4 4 5 5 6 6 7 7 6 6 6 6 5 3 3 4 4 5 5 4 2 2 3 5 5 5 3 3
5 5 4 4 4 4 4 4 5 4 4 4 4 5 5 6 6 6 6 6 6 5 4 4 3 3 4 4 4 4 4 3 2 2 4 7 10 10
Wind_Direction
191 186 179 175 165 162 150 149 147 159 209 224 143 9 42 63 56 55 52 67 68 67 64 60 57 57 56 54 53 53 53 54 54 53 52 51 51 49
185 177 179 172 168 164 158 147 144 150 168 188 174 148 108 102 86 64 56 69 69 70 70 67 63 61 60 57 54 53 53 53 55 53 52 51 52 51
197 185 191 174 170 166 154 147 146 137 143 150 102 98 100 101 73 60 61 50 55 72 70 68 66 62 60 58 56 53 51 50 51 54 53 52 52 51
207 197 195 177 174 167 163 165 162 149 144 155 149 121 114 132 110 87 69 67 61 74 72 71 70 65 61 58 55 53 52 49 48 50 51 51 51 50
202 203 197 177 183 175 171 169 164 155 138 144 151 129 110 123 100 82 68 30 56 77 74 68 68 67 63 61 58 52 51 51 49 47 48 52 52 50
205 205 200 190 188 180 177 173 160 149 138 139 142 140 132 130 127 130 94 28 21 37 46 63 61 55 51 55 61 60 56 54 52 50 48 49 49 47
211 209 211 207 199 188 180 173 162 155 152 152 154 147 160 165 179 169 161 127 329 355 41 27 27 15 11 11 29 54 59 56 52 48 44 43 42 42
213 216 218 213 208 201 195 181 171 166 170 168 172 180 190 182 157 159 151 151 238 228 153 265 84 278 286 319 346 20 50 51 51 47 43 39 39 39
214 206 212 214 203 193 193 187 189 188 178 171 178 192 186 183 165 165 177 176 197 189 150 220 229 255 257 281 295 262 259 285 6 47 39 42 43 38
217 210 204 214 200 187 180 181 191 199 195 187 190 195 187 175 175 174 167 144 110 157 150 198 222 240 271 264 276 259 250 250 246 249 289 25 35 32
228 217 204 208 209 185 174 181 192 209 204 192 185 182 178 171 159 137 141 147 188 219 185 180 204 235 280 274 268 260 246 237 234 235 236 257 343 32
234 227 214 210 208 188 183 185 198 208 184 180 177 174 173 174 172 170 167 164 167 209 192 179 179 160 278 288 287 278 254 251 243 247 250 252 224 160
224 226 225 214 210 202 196 200 206 186 175 172 167 164 159 168 180 181 176 170 173 203 182 168 170 169 188 260 297 272 234 243 243 255 256 247 216 185
225 224 224 217 216 210 204 210 197 166 158 163 169 180 183 187 188 184 185 189 188 193 174 165 169 174 169 196 249 268 255 232 221 244 248 254 232 221
227 220 218 215 213 211 211 204 184 168 167 178 192 199 194 182 162 154 154 152 118 150 163 175 173 170 173 191 206 210 240 248 216 229 237 227 219 213
230 218 211 205 201 206 203 199 187 184 184 194 196 185 160 157 166 165 166 161 155 225 203 190 182 172 184 198 196 213 207 225 224 222 233 244 239 223
188 170 161 175 199 204 200 190 188 184 192 189 180 173 171 174 177 169 165 161 179 191 185 157 141 161 194 183 200 219 217 231 235 211 208 247 250 237
170 188 194 201 214 215 212 203 197 197 196 191 185 183 184 186 181 173 171 177 193 199 192 175 147 116 49 270 221 220 220 230 232 209 202 229 261 253
195 207 206 207 215 220 221 212 207 206 194 191 191 190 187 185 181 184 186 190 200 203 199 177 173 174 203 246 253 210 207 215 198 208 218 224 246 260
215 218 216 214 214 215 221 220 211 198 195 199 197 193 189 187 187 192 194 197 200 198 196 191 197 202 211 220 223 233 210 200 198 219 233 242 259 278
218 222 218 217 219 217 221 219 208 204 203 202 201 197 192 191 197 198 199 202 199 199 208 216 216 203 182 130 222 252 238 220 210 207 199 221 274 282
219 220 217 217 217 214 218 216 209 204 203 207 207 201 196 196 202 201 199 199 203 208 216 211 168 166 178 205 229 237 245 248 239 235 228 211 203 223
219 219 215 214 214 212 213 212 212 211 207 208 207 203 200 201 204 202 202 202 202 203 199 190 178 185 204 213 225 234 237 242 234 247 257 251 247 254